Location: Newark
(43.0000°N, 1.6781°W)
Time: 19:44:04
(UTC+00:00)

A-11 Canister half - All Passes

Search period start: 17 April 2021 00:00
Search period end: 27 April 2021 00:00
Orbit: 1525 x 1683 km, 47.3° (Epoch: 17 April)

Date Brightness Start Highest point End Pass type
(mag) Time Alt. Az. Time Alt. Az. Time Alt. Az.
17 Apr - 01:13:30 10° WSW 01:16:02 11° WSW 01:18:33 10° SW visible
17 Apr - 14:22:23 10° S 14:30:48 32° SE 14:39:21 10° ENE daylight
17 Apr - 16:24:55 10° WSW 16:35:00 80° SSE 16:45:12 10° ENE daylight
17 Apr - 18:30:29 10° W 18:40:38 70° N 18:50:47 10° E daylight
17 Apr - 20:36:19 10° WNW 20:46:35 84° NNE 20:56:39 10° ESE visible
17 Apr - 22:41:50 10° WNW 22:51:21 48° SW 23:00:38 10° SSE visible
18 Apr - 00:50:56 10° W 00:54:28 12° WSW 00:57:59 10° SW visible
18 Apr - 14:00:58 10° S 14:09:12 31° SE 14:17:34 10° ENE daylight
18 Apr - 16:03:17 10° SW 16:13:18 78° SSE 16:23:29 10° ENE daylight
18 Apr - 18:08:44 10° W 18:18:54 71° N 18:29:04 10° ENE daylight
18 Apr - 20:14:36 10° WNW 20:24:52 82° NNE 20:34:57 10° ESE visible
18 Apr - 22:20:06 10° WNW 22:29:43 50° SW 22:39:06 10° SSE visible
19 Apr - 00:28:38 10° W 00:32:55 14° WSW 00:37:09 10° SSW visible
19 Apr - 13:39:33 10° S 13:47:35 29° SE 13:55:45 10° ENE daylight
19 Apr - 15:41:37 10° SW 15:51:37 76° SSE 16:01:47 10° ENE daylight
19 Apr - 17:47:01 10° W 17:57:10 71° N 18:07:21 10° ENE daylight
19 Apr - 19:52:53 10° WNW 20:03:09 81° NNE 20:13:15 10° ESE visible
19 Apr - 21:58:22 10° WNW 22:08:04 53° SW 22:17:33 10° SSE visible
20 Apr - 00:06:27 10° W 00:11:21 15° WSW 00:16:12 10° SSW visible
20 Apr - 13:18:10 10° S 13:25:59 27° SE 13:33:56 10° ENE daylight
20 Apr - 15:20:00 10° SW 15:29:57 74° SSE 15:40:04 10° ENE daylight
20 Apr - 17:25:18 10° W 17:35:25 72° N 17:45:37 10° ENE daylight
20 Apr - 19:31:11 10° WNW 19:41:26 79° NNE 19:51:33 10° ESE visible
20 Apr - 21:36:39 10° WNW 21:46:25 55° SW 21:56:00 10° SE visible
20 Apr - 23:44:21 10° W 23:49:46 16° WSW 23:55:08 10° SSW visible
21 Apr - 12:56:48 10° S 13:04:23 26° SE 13:12:06 10° ENE daylight
21 Apr - 14:58:22 10° SW 15:08:16 71° SSE 15:18:22 10° ENE daylight
21 Apr - 17:03:35 10° W 17:13:42 72° N 17:23:54 10° ENE daylight
21 Apr - 19:09:28 10° WNW 19:19:42 78° NNE 19:29:51 10° ESE visible
21 Apr - 21:14:55 10° WNW 21:24:46 57° SW 21:34:25 10° SE visible
21 Apr - 23:22:20 10° W 23:28:12 17° WSW 23:34:01 10° SSW visible
22 Apr - 12:35:28 10° S 12:42:47 24° SE 12:50:15 10° E daylight
22 Apr - 14:36:45 10° SW 14:46:35 69° SSE 14:56:39 10° ENE daylight
22 Apr - 16:41:51 10° W 16:51:58 73° N 17:02:11 10° ENE daylight
22 Apr - 18:47:45 10° WNW 18:57:58 77° NNE 19:08:08 10° ESE daylight
22 Apr - 20:53:12 10° WNW 21:03:07 59° SW 21:12:51 10° SE visible
22 Apr - 23:00:21 10° W 23:06:37 19° SW 23:12:50 10° SSW visible
23 Apr - 12:14:09 10° S 12:21:12 23° SE 12:28:23 10° E daylight
23 Apr - 14:15:08 10° SW 14:24:55 67° SE 14:34:56 10° ENE daylight
23 Apr - 16:20:08 10° W 16:30:14 74° NNW 16:40:27 10° ENE daylight
23 Apr - 18:26:03 10° WNW 18:36:15 76° NNE 18:46:25 10° E daylight
23 Apr - 20:31:30 10° WNW 20:41:27 62° SW 20:51:15 10° SE visible
23 Apr - 22:38:24 10° W 22:45:02 20° SW 22:51:37 10° SSW visible
24 Apr - 11:52:53 10° S 11:59:37 21° SE 12:06:30 10° E daylight
24 Apr - 13:53:33 10° SW 14:03:15 64° SE 14:13:13 10° ENE daylight
24 Apr - 15:58:26 10° W 16:08:30 75° NNW 16:18:43 10° ENE daylight
24 Apr - 18:04:19 10° WNW 18:14:31 75° NNE 18:24:42 10° E daylight
24 Apr - 20:09:47 10° WNW 20:19:47 64° SW 20:29:39 10° SE visible
24 Apr - 22:16:29 10° W 22:23:28 21° SW 22:30:21 10° S visible
25 Apr - 11:31:38 10° SSE 11:38:03 20° SE 11:44:34 10° E daylight
25 Apr - 13:31:57 10° SW 13:41:36 62° SE 13:51:30 10° ENE daylight
25 Apr - 15:36:43 10° W 15:46:46 76° NNW 15:57:00 10° ENE daylight
25 Apr - 17:42:36 10° WNW 17:52:47 74° N 18:02:58 10° E daylight
25 Apr - 19:48:04 10° WNW 19:58:07 66° SW 20:08:02 10° SE visible
25 Apr - 21:54:36 10° W 22:01:51 23° SW 22:09:04 10° S visible
26 Apr - 11:10:25 10° SSE 11:16:28 18° SE 11:22:37 10° E daylight
26 Apr - 13:10:22 10° SW 13:19:57 59° SE 13:29:47 10° ENE daylight
26 Apr - 15:15:01 10° W 15:25:03 77° NNW 15:35:17 10° ENE daylight
26 Apr - 17:20:54 10° WNW 17:31:03 73° N 17:41:15 10° E daylight
26 Apr - 19:26:22 10° WNW 19:36:26 69° SSW 19:46:24 10° SE visible
26 Apr - 21:32:44 10° W 21:40:16 24° SW 21:47:44 10° S visible
